Temp
72 72 72 72 72 71 70 70 71 71 72 72 72 72 73 72 72 71 71 71 71 71 70 70 69 69 68 68 67 67 66 65 65 64 63 64 63 63 64 63 62 61 60 59 58 60 54 55 57 58 59 60 60 60 63 63 63 61 59 59 61 60 59
73 73 72 72 70 71 70 69 70 71 72 72 73 72 73 73 72 72 72 71 71 71 71 71 70 69 68 67 66 66 65 65 65 66 64 63 64 63 63 62 62 61 59 59 60 59 54 55 56 57 58 59 58 58 59 62 63 63 62 61 62 62 60
72 72 70 70 69 69 71 69 69 70 71 71 72 72 72 73 72 72 72 72 71 71 71 71 71 69 69 68 67 67 66 65 65 65 65 64 65 65 64 64 62 60 59 60 59 59 57 57 56 56 57 58 56 60 60 59 61 63 62 62 61 62 61
71 71 69 69 70 69 70 70 69 70 70 71 71 72 72 72 72 72 72 72 72 71 71 71 70 70 69 69 69 68 67 66 65 65 64 64 65 64 64 64 64 63 62 61 60 59 59 55 56 55 57 59 61 59 60 62 62 62 62 60 60 60 61
72 71 70 70 70 69 70 70 70 69 69 70 71 71 71 72 72 72 72 72 72 71 71 71 71 71 70 70 69 68 67 67 66 65 65 64 64 64 64 64 64 65 64 63 62 61 61 59 59 57 56 56 59 59 61 59 60 61 61 61 61 61 61
72 72 71 71 71 71 70 70 69 69 69 69 70 70 71 71 72 71 71 71 71 71 71 71 71 71 70 70 69 68 68 67 66 66 65 65 64 64 64 65 65 64 65 65 63 62 62 61 60 57 57 57 58 57 61 59 58 61 62 62 61 60 61
72 72 72 72 72 72 71 71 71 70 70 70 70 71 72 72 72 72 72 72 72 71 71 71 71 71 71 70 69 68 68 68 68 66 66 66 65 65 65 64 64 64 65 64 63 62 62 60 58 59 58 55 55 57 56 56 58 60 59 60 61 61 60
73 72 73 73 73 72 72 72 72 72 71 71 71 72 72 72 72 72 72 72 71 71 71 70 71 70 70 70 69 69 69 69 68 67 67 66 66 65 64 65 65 65 65 64 63 63 63 63 62 60 59 57 53 53 55 56 55 59 61 60 63 61 61
73 73 72 72 73 73 73 73 72 72 73 73 72 71 72 73 72 71 71 72 72 71 71 71 70 70 70 70 69 69 69 70 68 67 67 66 66 65 65 65 64 65 65 64 64 64 63 63 63 61 61 60 57 53 51 54 53 56 60 59 59 61 62
72 72 72 72 73 73 73 73 73 73 73 73 72 72 71 72 73 72 71 71 71 71 71 71 71 70 70 70 69 69 68 69 68 67 67 66 66 66 65 65 65 65 65 64 64 64 63 62 62 62 63 62 59 57 51 49 51 53 57 61 59 60 63
72 72 73 73 73 73 73 73 73 72 72 73 73 72 72 71 72 72 72 71 71 71 71 71 71 71 70 69 69 69 69 69 68 67 67 67 66 66 65 65 65 64 65 64 64 64 63 62 62 62 61 62 61 60 57 55 54 54 53 56 61 59 59
73 73 73 73 73 73 72 73 72 73 73 72 72 72 71 71 71 72 72 71 71 70 71 71 71 70 69 69 69 69 69 68 68 67 67 67 67 66 65 65 64 64 64 63 64 63 63 63 63 62 61 61 60 62 59 55 53 52 57 56 57 62 60
73 73 73 73 73 72 73 73 73 72 72 72 72 72 71 71 71 71 71 71 71 71 71 71 71 70 69 69 69 68 68 68 67 67 67 66 67 66 65 65 65 65 64 63 63 63 63 63 63 62 62 61 60 60 59 56 55 57 52 54 55 59 61
72 73 73 73 73 73 73 73 73 73 73 72 72 72 71 72 72 72 72 71 71 71 71 70 70 70 69 68 68 68 68 68 67 67 66 66 67 66 65 65 65 65 65 63 63 63 63 63 62 62 62 61 60 58 59 57 56 54 53 52 52 55 56
73 73 73 73 73 73 73 73 73 73 73 73 73 73 72 72 72 72 72 72 72 71 71 71 70 70 69 68 68 68 68 67 67 67 66 66 65 66 66 65 65 65 64 64 64 63 63 62 62 61 61 61 60 58 59 59 55 55 55 54 56 53 53
73 72 72 72 72 73 73 73 74 73 73 73 73 73 73 72 72 72 72 72 71 71 71 71 71 70 69 69 68 68 68 67 67 66 66 66 66 66 65 65 65 65 64 63 63 64 63 62 62 62 62 60 60 59 58 60 55 54 53 52 51 52 53
72 72 72 72 72 72 73 73 74 73 73 73 73 73 73 73 72 71 71 71 71 71 71 71 70 70 70 69 68 68 68 67 67 67 67 66 66 66 65 64 64 64 64 63 63 62 62 62 61 61 61 60 60 59 58 58 60 54 52 54 51 54 54
71 72 72 72 72 73 73 73 73 73 73 73 73 73 72 73 72 71 71 71 71 71 71 71 70 70 70 70 69 69 68 68 67 67 67 67 67 66 65 65 65 64 63 63 62 62 61 60 61 60 60 59 59 59 58 58 58 54 54 55 53 51 51
71 71 72 72 72 73 73 73 73 73 74 73 73 73 72 72 72 72 72 72 72 72 71 71 70 70 70 70 69 69 69 68 68 68 67 67 67 67 66 65 65 64 63 63 63 62 61 60 60 59 59 59 59 57 57 55 56 55 56 55 54 51 50
68 72 72 72 73 73 73 73 73 73 73 73 73 72 72 72 72 72 72 72 71 71 71 71 70 70 70 70 69 69 68 68 68 68 67 67 67 67 67 66 65 64 64 64 64 63 61 59 59 59 59 59 57 57 56 55 54 55 54 53 50 52 53
68 71 73 73 73 73 73 73 73 74 73 73 73 73 72 72 72 72 72 72 72 72 71 71 70 70 70 70 69 69 68 68 68 67 67 67 67 67 67 66 66 65 65 65 64 63 61 60 59 58 57 58 56 56 55 53 53 53 52 51 52 49 48
68 70 71 73 72 73 73 73 73 73 73 73 73 74 73 73 72 71 72 72 72 71 71 71 71 71 70 70 70 69 69 68 68 67 67 66 66 67 66 66 66 65 65 65 63 62 61 62 59 58 56 56 56 56 54 53 53 51 50 50 50 49 49
67 70 72 72 72 72 72 73 73 73 73 73 73 73 73 73 72 72 71 71 71 71 71 71 67 62 63 70 70 70 69 68 68 67 66 66 65 66 66 66 66 66 63 62 59 56 55 57 60 62 59 56 56 55 54 53 51 51 51 50 50 49 48
66 67 70 71 72 72 72 73 72 73 73 73 73 73 73 72 72 72 71 71 71 71 71 71 61 55 54 58 68 69 69 68 68 67 67 66 65 64 65 65 64 64 63 62 60 54 53 53 53 55 56 58 60 59 55 53 53 52 52 52 50 49 51
67 68 70 70 71 71 72 72 72 72 72 72 73 73 72 72 72 72 72 71 71 71 71 64 56 53 53 53 58 69 69 68 67 67 67 66 66 65 64 63 63 63 63 63 62 58 55 53 51 51 51 51 52 54 55 58 55 50 51 51 49 50 50
69 70 70 70 71 71 71 71 71 71 72 73 73 72 72 72 72 72 72 71 71 71 71 61 54 53 52 51 52 62 70 69 67 67 67 67 66 66 65 63 62 62 63 61 62 59 58 56 52 51 52 52 52 50 48 50 53 58 55 55 53 50 51
68 69 70 70 70 70 70 70 71 72 72 72 72 72 72 72 72 72 72 71 71 71 71 63 53 52 51 50 50 55 71 69 67 68 67 67 67 66 65 64 63 61 60 60 59 58 58 56 54 53 52 53 53 55 50 48 49 51 54 57 55 53 52
68 69 69 69 69 69 70 70 71 71 72 72 72 71 72 71 72 72 72 72 71 71 71 60 53 51 50 50 49 52 70 70 68 68 68 68 67 66 65 64 63 63 60 59 58 57 57 55 54 53 52 52 52 52 52 51 52 52 53 52 55 56 54
64 65 67 67 67 68 68 68 68 69 71 72 72 73 73 73 72 71 72 71 71 70 72 57 52 51 50 49 48 58 68 69 68 67 67 67 67 67 65 64 62 61 59 59 55 51 54 56 55 53 52 51 49 48 50 52 48 51 54 54 54 55 53
63 63 64 64 64 65 64 65 63 62 62 64 68 71 72 72 72 72 71 71 70 70 71 61 51 51 49 48 50 62 66 69 68 67 67 67 67 66 65 64 63 61 59 58 52 47 48 53 55 54 53 51 50 48 50 46 44 45 47 47 48 48 47
61 63 63 63 63 63 63 63 64 64 63 62 61 63 66 70 72 72 71 71 71 71 70 65 52 50 48 47 54 63 66 68 68 67 67 67 66 66 65 61 63 61 59 58 47 46 46 53 56 54 52 50 49 49 48 44 45 43 42 42 42 43 44
61 62 63 63 64 63 63 63 63 63 63 64 63 63 62 62 67 71 72 72 66 69 70 66 52 49 47 47 53 65 67 68 67 67 66 66 66 65 65 61 60 60 60 55 45 46 46 54 57 54 53 52 51 50 50 45 46 43 44 45 43 45 44
61 62 63 64 64 65 65 63 63 63 63 64 64 65 63 63 63 63 65 68 70 69 70 70 56 48 47 47 50 64 68 67 66 66 66 65 63 64 64 62 57 51 50 47 45 45 45 50 58 56 54 54 52 50 49 47 48 48 47 49 46 45 47
61 61 63 64 65 64 63 63 62 63 62 63 63 63 64 64 64 64 65 64 66 69 70 70 59 46 47 47 47 56 68 68 68 67 66 64 64 63 62 62 60 51 47 46 45 44 45 47 52 57 55 55 55 52 48 49 49 52 48 46 46 45 46
58 59 59 59 59 61 61 62 62 62 62 62 62 62 62 62 63 63 62 62 62 65 66 63 64 46 46 46 47 50 65 69 68 68 66 65 64 63 63 62 61 51 45 45 45 45 45 46 47 57 56 51 47 44 49 51 50 48 47 46 45 45 45
58 59 60 60 60 61 61 61 60 60 60 61 61 61 62 62 61 61 61 62 62 63 64 62 55 52 45 46 46 47 54 63 56 66 67 65 64 64 63 61 59 49 45 45 45 45 45 46 47 54 49 46 45 44 48 51 48 47 46 46 46 46 45
60 59 58 58 57 58 59 59 59 59 59 59 59 60 60 61 60 60 60 60 60 61 61 62 52 50 49 44 45 46 48 53 54 64 68 67 66 65 63 61 56 45 45 45 45 45 45 46 50 48 45 45 43 45 52 48 47 47 46 45 45 46 46
MSLP
1012.48 1012.40 1012.68 1013.00 1013.36 1013.88 1014.24 1014.40 1014.56 1014.80 1014.96 1015.04 1015.24 1015.40 1015.44 1015.60 1015.88 1016.20 1016.40 1016.64 1016.76 1016.80 1016.96 1017.12 1017.28 1017.48 1017.72 1017.88 1017.96 1018.08 1018.40 1018.64 1018.80 1019.12 1019.56 1019.68 1019.96 1019.92 1019.76 1020.04 1020.04 1020.12 1020.12 1020.04 1020.32 1020.84 1021.20 1021.76 1021.76 1021.40 1021.24 1021.24 1021.36 1021.32 1021.16 1021.12 1021.20 1021.24 1021.36 1021.44 1021.48 1021.68 1021.84
1011.68 1012.20 1012.60 1012.92 1013.40 1013.60 1014.08 1014.24 1014.32 1014.44 1014.64 1014.76 1014.84 1015.00 1015.16 1015.24 1015.48 1015.76 1016.04 1016.32 1016.48 1016.56 1016.60 1016.76 1016.92 1017.12 1017.40 1017.72 1018.00 1018.16 1018.28 1018.44 1018.48 1018.52 1018.92 1019.28 1019.44 1019.52 1019.80 1020.04 1020.04 1020.16 1020.28 1020.20 1020.24 1020.44 1020.92 1021.48 1021.52 1021.64 1021.44 1021.28 1021.36 1021.20 1021.04 1020.84 1020.72 1020.76 1020.84 1020.92 1021.00 1021.16 1021.44
1011.60 1012.04 1012.48 1012.96 1013.24 1013.52 1013.80 1013.96 1014.04 1014.20 1014.28 1014.52 1014.60 1014.68 1014.80 1014.92 1015.12 1015.36 1015.64 1015.88 1016.08 1016.20 1016.36 1016.44 1016.60 1016.88 1017.08 1017.32 1017.48 1017.68 1017.80 1018.08 1018.16 1018.32 1018.48 1018.64 1018.80 1018.96 1019.08 1019.28 1019.96 1020.16 1020.44 1020.48 1020.52 1020.60 1020.64 1020.60 1020.92 1021.16 1021.24 1021.36 1021.60 1020.80 1020.72 1020.84 1020.68 1020.56 1020.56 1020.68 1020.88 1021.04 1021.20
1011.20 1011.72 1012.40 1012.76 1012.96 1013.28 1013.40 1013.52 1013.68 1013.72 1013.88 1014.04 1014.24 1014.44 1014.44 1014.60 1014.76 1014.92 1015.16 1015.40 1015.60 1015.88 1016.08 1016.20 1016.32 1016.44 1016.60 1016.84 1017.08 1017.36 1017.56 1017.68 1017.92 1018.12 1018.32 1018.36 1018.56 1018.80 1018.96 1019.12 1019.32 1019.48 1019.72 1020.08 1020.16 1020.32 1020.32 1020.68 1020.96 1020.92 1020.96 1020.92 1020.72 1020.80 1020.40 1020.28 1020.40 1020.36 1020.40 1020.48 1020.68 1020.84 1020.96
1010.80 1011.32 1011.72 1012.00 1012.20 1012.48 1012.64 1013.00 1013.24 1013.56 1013.72 1013.76 1013.88 1014.08 1014.24 1014.20 1014.44 1014.60 1014.72 1015.00 1015.28 1015.48 1015.68 1015.68 1015.88 1016.04 1016.20 1016.44 1016.72 1016.96 1017.16 1017.32 1017.44 1017.76 1017.96 1018.24 1018.40 1018.56 1018.72 1018.76 1018.84 1018.92 1019.12 1019.32 1019.40 1019.68 1019.96 1020.08 1020.28 1020.48 1020.72 1020.72 1020.88 1020.56 1020.04 1020.16 1020.28 1020.40 1020.36 1020.32 1020.32 1020.52 1020.68
1010.36 1010.60 1010.92 1011.28 1011.44 1011.88 1012.08 1012.40 1012.88 1013.16 1013.28 1013.60 1013.48 1013.56 1013.56 1013.72 1013.96 1014.28 1014.44 1014.60 1014.76 1014.92 1015.16 1015.40 1015.52 1015.68 1015.92 1016.16 1016.40 1016.60 1016.76 1017.00 1017.16 1017.36 1017.64 1017.72 1017.92 1018.20 1018.32 1018.32 1018.48 1018.64 1018.68 1018.68 1018.96 1019.28 1019.44 1019.64 1019.92 1020.40 1020.44 1020.44 1020.44 1020.44 1020.08 1020.16 1020.16 1020.08 1020.00 1020.04 1020.08 1020.28 1020.44
1009.80 1010.04 1010.32 1010.60 1010.80 1011.04 1011.32 1011.64 1011.88 1012.28 1012.68 1012.52 1012.64 1012.80 1012.80 1013.20 1013.48 1013.56 1013.84 1014.04 1014.20 1014.48 1014.80 1015.00 1015.24 1015.36 1015.56 1015.84 1016.08 1016.28 1016.40 1016.48 1016.72 1017.00 1017.16 1017.32 1017.56 1017.60 1017.80 1018.20 1018.32 1018.32 1018.32 1018.44 1018.64 1018.88 1019.20 1019.60 1019.96 1020.04 1020.20 1020.52 1020.52 1020.40 1020.20 1020.24 1019.96 1020.24 1019.96 1019.84 1019.80 1019.96 1020.12
1009.16 1009.48 1009.64 1009.76 1010.08 1010.52 1010.76 1011.04 1011.16 1011.44 1011.88 1011.92 1011.92 1012.04 1012.48 1012.72 1012.92 1013.28 1013.44 1013.68 1013.88 1014.12 1014.40 1014.68 1014.88 1015.08 1015.24 1015.48 1015.68 1015.84 1016.00 1016.12 1016.36 1016.64 1016.88 1017.12 1017.36 1017.52 1017.68 1017.76 1017.88 1018.04 1018.04 1018.16 1018.32 1018.52 1018.60 1018.84 1019.08 1019.40 1019.88 1020.44 1020.68 1020.68 1020.44 1020.12 1020.12 1020.00 1019.52 1019.44 1019.44 1019.72 1019.76
1008.64 1008.92 1009.16 1009.40 1009.64 1009.80 1010.12 1010.36 1010.56 1010.68 1010.80 1011.12 1011.44 1011.84 1012.00 1012.20 1012.52 1012.84 1013.08 1013.24 1013.40 1013.72 1013.96 1014.20 1014.48 1014.72 1014.92 1015.20 1015.40 1015.56 1015.76 1015.68 1016.08 1016.32 1016.48 1016.76 1016.92 1017.08 1017.32 1017.44 1017.72 1017.72 1017.68 1017.84 1018.00 1018.08 1018.24 1018.36 1018.60 1018.88 1019.20 1019.56 1020.12 1020.68 1020.60 1020.44 1020.16 1019.84 1019.40 1019.56 1019.52 1019.48 1019.48
1008.32 1008.60 1008.84 1009.00 1009.12 1009.12 1009.40 1009.72 1010.00 1010.04 1010.20 1010.60 1011.04 1011.28 1011.64 1011.80 1012.04 1012.36 1012.68 1012.88 1013.08 1013.24 1013.56 1013.80 1014.04 1014.28 1014.52 1014.80 1015.00 1015.24 1015.44 1015.44 1015.68 1015.92 1016.12 1016.36 1016.44 1016.72 1017.00 1017.16 1017.24 1017.28 1017.36 1017.48 1017.68 1017.80 1017.96 1018.16 1018.28 1018.44 1018.52 1018.80 1019.16 1019.76 1020.24 1020.44 1020.12 1020.00 1019.44 1019.32 1019.44 1019.12 1019.08
1007.68 1007.92 1008.24 1008.48 1008.52 1008.84 1009.08 1009.36 1009.64 1010.08 1010.16 1010.00 1010.28 1010.72 1011.12 1011.48 1011.68 1011.92 1012.24 1012.44 1012.64 1012.92 1013.12 1013.40 1013.64 1013.88 1014.16 1014.40 1014.52 1014.76 1014.88 1015.12 1015.40 1015.56 1015.72 1015.88 1016.16 1016.36 1016.60 1016.84 1016.96 1017.08 1017.00 1017.24 1017.36 1017.48 1017.68 1017.84 1018.04 1018.16 1018.28 1018.24 1018.40 1018.92 1019.20 1019.64 1019.36 1019.40 1019.16 1018.96 1018.84 1018.80 1018.96
1007.20 1007.48 1007.76 1008.04 1008.32 1008.56 1008.68 1008.84 1009.12 1009.20 1009.40 1009.72 1010.04 1010.40 1010.80 1011.12 1011.36 1011.60 1011.76 1012.04 1012.28 1012.48 1012.72 1012.96 1013.20 1013.52 1013.76 1014.08 1014.24 1014.44 1014.60 1014.84 1015.12 1015.28 1015.32 1015.56 1015.76 1016.08 1016.36 1016.60 1016.68 1016.80 1016.80 1017.00 1017.12 1017.28 1017.40 1017.56 1017.68 1017.88 1017.96 1018.04 1018.16 1018.16 1018.64 1019.00 1019.36 1018.72 1018.84 1018.68 1018.56 1018.36 1018.48
1006.44 1006.84 1007.16 1007.56 1007.96 1008.12 1008.12 1008.28 1008.52 1008.92 1009.08 1009.16 1009.32 1009.68 1010.24 1010.64 1010.96 1011.24 1011.36 1011.56 1011.80 1012.04 1012.32 1012.52 1012.80 1013.08 1013.44 1013.60 1013.80 1014.12 1014.28 1014.56 1014.80 1014.96 1015.08 1015.24 1015.44 1015.68 1016.00 1016.24 1016.32 1016.44 1016.56 1016.80 1016.96 1017.04 1017.16 1017.24 1017.32 1017.56 1017.64 1017.76 1017.84 1017.92 1018.12 1018.60 1018.92 1018.56 1018.48 1018.36 1018.20 1018.24 1018.16
1006.16 1006.40 1006.76 1007.00 1007.36 1007.52 1007.64 1007.76 1008.00 1008.16 1008.52 1008.84 1008.88 1009.28 1009.68 1010.04 1010.40 1010.72 1011.04 1011.28 1011.36 1011.52 1011.76 1012.12 1012.36 1012.64 1012.96 1013.24 1013.40 1013.60 1013.92 1014.20 1014.44 1014.60 1014.80 1015.04 1015.12 1015.32 1015.56 1015.76 1015.88 1016.00 1016.20 1016.56 1016.64 1016.76 1016.88 1016.96 1017.08 1017.16 1017.24 1017.40 1017.60 1017.80 1018.00 1018.36 1018.56 1018.56 1018.32 1018.44 1018.40 1018.16 1018.24
1005.36 1005.72 1006.08 1006.36 1006.68 1006.96 1007.24 1007.40 1007.52 1007.84 1008.20 1008.20 1008.36 1008.60 1008.92 1009.40 1009.88 1010.32 1010.72 1010.88 1011.04 1011.12 1011.32 1011.56 1011.84 1012.16 1012.48 1012.76 1013.04 1013.24 1013.48 1013.76 1014.04 1014.24 1014.44 1014.68 1014.80 1014.92 1015.16 1015.44 1015.56 1015.72 1015.92 1016.16 1016.32 1016.48 1016.52 1016.68 1016.80 1016.96 1017.04 1017.12 1017.28 1017.56 1017.64 1017.88 1018.20 1018.28 1018.24 1018.20 1018.20 1018.32 1018.44
1004.96 1005.32 1005.68 1005.96 1006.24 1006.48 1006.72 1006.96 1007.16 1007.52 1007.64 1007.72 1007.84 1008.00 1008.36 1008.80 1009.28 1009.76 1010.16 1010.44 1010.68 1010.88 1010.92 1011.08 1011.32 1011.60 1011.88 1012.16 1012.48 1012.76 1012.92 1013.28 1013.56 1013.84 1014.04 1014.12 1014.32 1014.56 1014.92 1015.08 1015.16 1015.40 1015.68 1016.00 1016.04 1016.08 1016.20 1016.32 1016.40 1016.56 1016.64 1016.80 1017.00 1017.16 1017.40 1017.36 1017.76 1018.12 1018.12 1018.16 1018.28 1018.32 1018.44
1004.84 1005.08 1005.40 1005.48 1005.76 1006.00 1006.32 1006.60 1006.76 1007.08 1007.20 1007.24 1007.48 1007.60 1007.84 1008.28 1008.80 1009.32 1009.72 1010.04 1010.28 1010.48 1010.60 1010.64 1010.84 1011.04 1011.28 1011.64 1011.96 1012.24 1012.48 1012.72 1012.96 1013.20 1013.40 1013.64 1013.92 1014.20 1014.40 1014.72 1014.84 1015.04 1015.32 1015.68 1015.76 1015.92 1015.96 1016.04 1016.16 1016.28 1016.40 1016.56 1016.68 1016.84 1017.04 1017.20 1017.12 1017.44 1017.88 1017.92 1018.32 1018.20 1018.36
1005.00 1004.92 1005.00 1005.08 1005.36 1005.64 1005.92 1006.16 1006.40 1006.64 1006.88 1007.04 1007.08 1007.28 1007.60 1007.84 1008.36 1008.80 1009.20 1009.44 1009.68 1009.88 1010.00 1010.16 1010.44 1010.68 1010.84 1011.04 1011.36 1011.72 1012.00 1012.24 1012.44 1012.64 1012.84 1013.08 1013.32 1013.64 1013.96 1014.12 1014.32 1014.68 1015.04 1015.32 1015.44 1015.64 1015.72 1015.88 1015.92 1016.08 1016.24 1016.32 1016.48 1016.56 1016.84 1016.96 1017.00 1017.04 1017.44 1017.64 1017.96 1018.32 1018.40
1005.24 1004.88 1004.76 1004.88 1005.00 1005.20 1005.40 1005.64 1005.84 1006.04 1006.20 1006.44 1006.60 1006.84 1007.16 1007.44 1007.72 1008.12 1008.36 1008.64 1008.96 1009.24 1009.48 1009.80 1009.96 1010.08 1010.40 1010.72 1011.00 1011.24 1011.48 1011.72 1011.92 1012.16 1012.40 1012.64 1012.84 1013.12 1013.36 1013.64 1013.92 1014.24 1014.56 1014.84 1014.92 1015.12 1015.36 1015.56 1015.76 1015.92 1016.04 1016.16 1016.24 1016.40 1016.56 1016.76 1016.84 1017.00 1017.08 1017.32 1017.68 1018.16 1018.44
1006.08 1004.84 1004.56 1004.56 1004.64 1004.88 1005.12 1005.28 1005.44 1005.60 1005.60 1005.84 1006.20 1006.48 1006.64 1006.96 1007.20 1007.48 1007.80 1008.12 1008.52 1008.76 1009.04 1009.36 1009.60 1009.80 1010.00 1010.24 1010.48 1010.80 1011.04 1011.28 1011.48 1011.76 1011.92 1012.16 1012.40 1012.68 1012.92 1013.20 1013.48 1013.76 1014.00 1014.12 1014.40 1014.64 1014.96 1015.28 1015.44 1015.60 1015.68 1015.84 1016.12 1016.28 1016.40 1016.52 1016.76 1016.92 1017.12 1017.40 1017.84 1017.76 1017.96
1005.64 1004.92 1004.08 1003.88 1004.08 1004.32 1004.60 1004.80 1004.96 1005.00 1005.20 1005.48 1005.72 1005.92 1006.16 1006.40 1006.60 1006.88 1007.16 1007.52 1007.80 1008.16 1008.64 1009.04 1009.24 1009.36 1009.48 1009.64 1009.96 1010.20 1010.48 1010.76 1011.04 1011.28 1011.52 1011.80 1012.00 1012.24 1012.48 1012.72 1012.96 1013.16 1013.32 1013.52 1013.80 1014.08 1014.48 1014.84 1015.12 1015.36 1015.48 1015.68 1015.96 1016.12 1016.28 1016.48 1016.72 1016.92 1017.20 1017.44 1017.52 1017.80 1018.04
1005.36 1005.04 1004.24 1003.76 1003.80 1003.96 1004.08 1004.24 1004.40 1004.56 1004.72 1004.92 1005.08 1005.28 1005.56 1005.92 1006.28 1006.56 1006.72 1006.96 1007.24 1007.64 1008.08 1008.36 1008.56 1008.72 1008.92 1009.16 1009.32 1009.64 1009.96 1010.28 1010.56 1010.88 1011.20 1011.48 1011.68 1011.88 1012.08 1012.28 1012.48 1012.64 1012.84 1013.04 1013.28 1013.56 1013.84 1014.12 1014.64 1015.04 1015.36 1015.56 1015.76 1015.92 1016.20 1016.44 1016.56 1016.88 1017.16 1017.36 1017.56 1017.76 1017.92
1005.40 1004.64 1003.80 1003.48 1003.52 1003.56 1003.72 1003.84 1004.04 1004.20 1004.28 1004.36 1004.52 1004.76 1005.16 1005.48 1005.84 1006.12 1006.36 1006.48 1006.68 1007.04 1007.36 1007.52 1007.64 1007.88 1008.12 1008.44 1008.80 1009.16 1009.56 1009.84 1010.08 1010.36 1010.76 1011.16 1011.44 1011.56 1011.64 1011.84 1012.00 1012.20 1012.52 1012.76 1013.08 1013.36 1013.60 1013.80 1013.92 1014.12 1014.68 1015.24 1015.40 1015.72 1015.96 1016.24 1016.52 1016.68 1016.92 1017.20 1017.28 1017.52 1017.76
1004.92 1004.60 1003.68 1003.04 1003.04 1003.24 1003.36 1003.44 1003.64 1003.80 1003.88 1004.00 1004.16 1004.36 1004.68 1005.08 1005.36 1005.52 1005.76 1006.00 1006.24 1006.36 1006.48 1006.56 1006.80 1007.32 1007.76 1007.96 1008.24 1008.68 1009.04 1009.32 1009.60 1009.92 1010.24 1010.60 1010.96 1011.24 1011.44 1011.56 1011.76 1012.00 1012.28 1012.56 1012.80 1013.04 1013.32 1013.56 1013.76 1013.96 1014.20 1014.36 1014.56 1014.92 1015.60 1016.00 1016.16 1016.40 1016.52 1016.60 1017.00 1017.24 1017.12
1003.92 1003.56 1002.72 1002.48 1002.64 1002.76 1002.88 1003.08 1003.28 1003.36 1003.48 1003.64 1003.72 1003.92 1004.32 1004.56 1004.68 1004.92 1005.20 1005.44 1005.64 1005.64 1005.68 1005.68 1006.16 1006.76 1007.28 1007.60 1007.80 1008.04 1008.52 1008.96 1009.28 1009.48 1009.68 1010.04 1010.36 1010.80 1011.12 1011.40 1011.56 1011.72 1011.92 1012.12 1012.48 1012.92 1013.20 1013.36 1013.60 1013.84 1014.04 1014.24 1014.44 1014.44 1014.44 1014.80 1015.48 1016.20 1016.24 1016.28 1016.68 1016.76 1016.88
1002.64 1002.44 1002.28 1002.28 1002.32 1002.44 1002.56 1002.72 1002.84 1002.96 1003.12 1003.08 1003.28 1003.64 1003.76 1003.92 1004.12 1004.28 1004.60 1004.92 1005.04 1004.96 1004.96 1004.96 1005.52 1006.08 1006.60 1007.08 1007.40 1007.64 1008.00 1008.36 1008.80 1009.04 1009.24 1009.52 1009.92 1010.32 1010.76 1011.12 1011.36 1011.48 1011.56 1011.80 1012.12 1012.48 1012.88 1013.32 1013.64 1013.72 1013.84 1014.12 1014.32 1014.32 1014.40 1014.44 1014.44 1014.72 1015.40 1015.64 1015.80 1016.36 1016.36
1002.24 1002.20 1002.12 1002.12 1002.12 1002.24 1002.36 1002.36 1002.28 1002.28 1002.44 1002.60 1002.84 1003.00 1003.16 1003.36 1003.48 1003.68 1003.88 1004.16 1004.40 1004.48 1004.36 1004.28 1004.88 1005.40 1005.96 1006.48 1006.96 1007.40 1007.40 1007.88 1008.24 1008.56 1008.80 1009.04 1009.36 1009.80 1010.16 1010.60 1010.92 1011.24 1011.40 1011.64 1011.88 1012.20 1012.60 1012.96 1013.44 1013.84 1014.12 1014.32 1014.36 1014.36 1014.44 1014.48 1014.64 1014.72 1014.80 1014.84 1015.24 1015.44 1015.88
1001.84 1001.84 1001.80 1001.88 1002.04 1002.16 1002.20 1002.12 1002.04 1002.00 1002.08 1002.16 1002.28 1002.44 1002.60 1002.80 1002.84 1002.96 1003.08 1003.36 1003.76 1003.92 1003.76 1003.68 1004.16 1004.68 1005.24 1005.88 1006.52 1007.12 1007.08 1007.44 1007.80 1008.04 1008.24 1008.44 1008.64 1009.08 1009.60 1010.00 1010.28 1010.60 1011.00 1011.28 1011.56 1011.88 1012.32 1012.84 1013.28 1013.60 1013.88 1014.04 1014.24 1014.32 1014.48 1014.64 1014.68 1014.76 1014.88 1014.88 1014.80 1014.80 1015.12
1001.32 1001.44 1001.52 1001.52 1001.64 1001.76 1001.84 1002.08 1002.36 1002.36 1002.08 1001.72 1001.56 1001.64 1001.72 1001.80 1002.00 1002.20 1002.32 1002.72 1003.08 1003.28 1003.20 1003.24 1003.56 1004.04 1004.64 1005.40 1006.24 1006.92 1006.88 1007.04 1007.28 1007.56 1007.84 1008.00 1008.20 1008.52 1009.04 1009.48 1009.88 1010.24 1010.60 1010.84 1011.16 1011.52 1011.84 1012.44 1012.96 1013.32 1013.60 1013.92 1014.24 1014.52 1014.52 1014.52 1014.52 1014.52 1014.48 1014.52 1014.60 1014.64 1014.80
1000.92 1001.00 1001.12 1001.28 1001.36 1001.32 1001.36 1001.36 1001.60 1002.12 1003.08 1003.40 1002.60 1001.68 1001.28 1001.32 1001.32 1001.56 1001.84 1002.04 1002.32 1002.60 1002.72 1002.76 1003.04 1003.44 1004.16 1004.96 1006.04 1006.40 1006.48 1006.60 1006.84 1007.12 1007.28 1007.52 1007.84 1008.16 1008.52 1008.92 1009.32 1009.76 1010.20 1010.52 1010.88 1011.32 1011.72 1012.08 1012.60 1013.00 1013.36 1013.80 1014.20 1014.40 1014.40 1014.64 1014.72 1014.60 1014.52 1014.44 1014.40 1014.48 1014.60
1000.40 1000.52 1000.72 1000.88 1000.92 1000.96 1001.00 1000.96 1000.88 1001.08 1001.60 1002.24 1003.36 1003.44 1002.84 1001.68 1000.92 1000.84 1001.12 1001.36 1001.56 1002.04 1002.16 1002.20 1002.64 1003.12 1003.80 1004.72 1005.16 1005.60 1005.92 1006.24 1006.48 1006.68 1006.92 1007.12 1007.36 1007.60 1007.84 1008.28 1008.76 1009.16 1009.64 1010.08 1010.64 1011.04 1011.48 1011.76 1012.24 1012.68 1013.20 1013.68 1014.08 1014.24 1014.28 1014.72 1014.76 1014.80 1014.88 1014.80 1014.76 1014.68 1014.60
999.84 1000.00 1000.16 1000.20 1000.24 1000.40 1000.52 1000.60 1000.52 1000.68 1000.92 1001.08 1001.20 1001.72 1002.88 1003.32 1002.44 1001.24 1000.68 1000.76 1001.04 1001.52 1001.72 1001.88 1002.36 1002.92 1003.64 1004.28 1004.76 1004.96 1005.36 1005.76 1006.12 1006.24 1006.52 1006.80 1006.96 1007.20 1007.56 1007.96 1008.20 1008.44 1008.92 1009.52 1010.20 1010.72 1011.16 1011.36 1011.72 1012.32 1012.72 1013.24 1013.44 1013.64 1013.92 1014.60 1014.48 1014.56 1014.64 1014.56 1014.76 1014.88 1015.04
999.40 999.60 999.68 999.72 999.72 999.80 999.80 1000.00 1000.20 1000.28 1000.32 1000.40 1000.60 1000.68 1000.76 1001.48 1002.48 1002.64 1002.32 1001.56 1000.96 1001.08 1001.40 1001.52 1002.04 1002.52 1003.16 1003.84 1004.20 1004.40 1004.80 1005.44 1005.76 1005.84 1006.08 1006.40 1006.88 1007.12 1007.32 1007.72 1008.16 1008.32 1008.56 1009.20 1009.76 1010.32 1010.76 1010.92 1011.12 1011.76 1012.36 1012.60 1012.92 1013.24 1013.92 1014.52 1014.52 1014.32 1014.40 1014.28 1014.56 1014.76 1014.80
999.08 999.16 999.28 999.36 999.36 999.40 999.52 999.68 999.72 999.96 1000.08 1000.12 1000.28 1000.28 1000.28 1000.52 1000.80 1001.40 1001.88 1002.16 1001.92 1000.92 1000.64 1000.88 1001.32 1002.00 1002.68 1003.32 1003.84 1004.04 1004.32 1004.64 1004.80 1005.28 1005.76 1006.20 1006.44 1006.72 1007.08 1007.32 1007.72 1008.32 1008.64 1009.04 1009.56 1009.96 1010.32 1010.52 1010.64 1011.16 1011.64 1011.84 1011.88 1012.56 1013.68 1014.24 1014.48 1014.44 1014.40 1014.60 1014.76 1014.92 1015.04
998.80 998.88 998.96 999.20 999.40 999.56 999.56 999.64 999.68 999.60 999.72 999.84 999.92 1000.00 1000.20 1000.52 1000.84 1000.92 1001.04 1001.80 1002.40 1001.88 1000.96 1000.44 1000.72 1001.40 1001.76 1002.36 1003.04 1003.40 1003.56 1003.72 1004.00 1004.72 1005.44 1005.76 1006.00 1006.20 1006.28 1006.72 1007.24 1007.96 1008.48 1008.80 1009.24 1009.64 1009.84 1010.12 1010.40 1010.76 1011.04 1011.24 1012.04 1012.72 1013.12 1013.56 1014.00 1014.48 1014.64 1014.76 1014.92 1015.04 1015.16
998.36 998.36 998.32 998.32 998.48 998.76 998.92 999.20 999.40 999.48 999.52 999.64 999.68 999.80 999.68 999.80 1000.40 1001.08 1001.36 1001.24 1001.68 1002.36 1002.16 1001.40 1000.60 1000.96 1001.48 1001.84 1002.24 1002.64 1002.60 1002.80 1003.44 1004.12 1004.60 1004.96 1005.08 1005.24 1005.76 1006.32 1006.84 1007.56 1007.92 1008.24 1008.68 1008.92 1009.28 1009.64 1010.20 1010.16 1010.56 1011.28 1011.72 1012.20 1012.80 1013.32 1013.84 1014.24 1014.56 1014.76 1014.88 1014.92 1015.08
997.92 998.00 998.24 998.40 998.64 998.84 998.92 999.04 999.20 999.32 999.24 999.28 999.48 999.60 999.64 999.88 1000.20 1000.40 1000.56 1000.92 1001.36 1002.04 1002.44 1002.32 1001.44 1000.84 1001.20 1001.68 1001.88 1002.00 1002.12 1002.28 1002.76 1003.20 1003.52 1003.92 1004.24 1004.80 1005.24 1005.56 1006.16 1007.04 1007.64 1007.96 1008.16 1008.40 1008.64 1009.12 1009.56 1009.76 1010.40 1010.92 1011.52 1012.08 1012.56 1013.24 1013.76 1013.96 1014.24 1014.56 1014.68 1014.68 1014.80
Wind_Speed
15 15 13 11 8 8 9 10 10 10 11 11 12 12 12 12 11 11 11 9 9 9 9 9 10 9 7 7 8 9 8 8 9 9 9 8 11 8 7 6 4 1 3 3 4 7 4 4 5 2 2 5 5 7 8 9 8 9 9 8 8 7 7
13 10 7 7 8 9 10 9 11 11 11 11 12 12 12 12 12 12 11 11 10 10 9 9 9 9 10 10 9 8 9 8 8 8 8 10 9 8 7 7 4 4 3 3 2 4 3 3 3 5 6 1 3 6 7 7 7 8 9 10 9 8 7
11 9 7 9 9 9 11 11 10 10 11 11 11 12 13 13 13 12 12 13 12 10 9 10 10 10 10 10 11 11 10 10 8 8 9 8 9 7 8 8 8 5 2 3 2 4 1 3 5 5 6 7 7 8 7 8 9 8 7 7 7 6 7
14 12 10 11 10 10 12 12 11 11 11 12 11 11 12 13 13 13 12 12 11 10 10 10 10 10 10 10 10 10 10 11 9 9 8 7 8 8 8 8 9 10 10 9 7 6 5 3 2 4 3 7 10 8 7 10 8 8 7 6 7 7 7
15 12 15 15 15 15 14 12 10 9 10 11 11 11 12 13 12 12 12 12 11 11 11 10 10 10 9 9 9 9 9 10 9 9 8 8 9 8 9 8 8 8 8 7 6 7 7 6 7 6 6 3 4 6 3 2 5 5 7 8 7 7 7
14 15 15 15 14 13 12 12 11 12 11 11 13 14 14 15 12 12 13 12 12 12 11 10 10 10 9 9 9 10 10 10 10 10 9 10 10 10 10 9 8 8 9 7 6 7 6 5 6 6 6 3 6 5 7 3 4 5 8 8 7 6 7
15 16 14 14 14 13 12 13 14 13 13 15 14 15 14 14 12 13 12 12 12 11 11 11 11 10 10 10 10 11 11 10 9 11 11 10 9 10 8 8 9 9 9 7 7 6 7 6 6 7 5 2 3 6 2 2 2 2 4 6 6 6 7
15 14 14 13 13 13 12 13 13 12 13 13 14 13 12 14 14 12 13 13 12 12 11 11 11 10 10 10 9 11 10 9 10 11 10 10 10 10 9 9 9 9 9 8 7 8 7 8 7 6 6 5 2 3 5 3 2 6 6 3 6 6 8
14 13 12 11 11 13 13 13 14 14 14 12 11 11 13 14 14 13 13 13 12 12 12 12 12 11 11 11 10 10 11 8 10 12 10 10 11 11 11 9 8 10 9 8 8 8 7 7 7 6 7 7 7 6 2 5 4 6 4 4 1 6 7
16 15 15 15 16 15 14 13 13 14 13 11 11 11 12 13 13 13 13 13 13 12 12 12 12 11 11 11 11 11 12 10 10 11 10 10 11 10 9 10 10 9 8 7 7 7 7 6 7 7 8 9 7 7 5 6 6 7 5 6 6 6 8
16 16 15 15 15 14 13 12 11 10 12 13 12 11 12 13 13 14 13 13 12 12 13 12 12 12 12 11 11 11 11 9 10 9 10 10 10 9 9 9 8 8 7 7 8 7 7 7 7 7 7 7 7 8 7 7 7 6 4 4 5 4 5
15 15 14 14 13 13 14 13 13 14 13 11 11 11 12 13 13 13 13 13 12 13 12 13 12 12 12 11 11 11 10 10 10 11 10 10 9 8 10 10 9 9 7 8 7 7 6 7 7 7 7 7 7 7 7 6 5 4 5 6 6 5 6
17 16 15 15 14 14 15 15 14 13 13 12 13 13 12 13 13 14 13 13 13 13 13 12 12 12 11 11 11 11 10 11 11 12 10 9 8 9 10 11 11 10 8 6 7 7 7 7 7 7 7 7 7 7 7 6 7 8 4 5 5 6 6
17 15 16 15 15 15 14 14 14 13 11 12 12 13 14 14 14 14 13 13 14 14 14 13 12 11 12 12 11 12 11 12 13 11 10 10 9 10 11 12 11 11 8 8 8 7 7 8 7 7 7 7 7 6 7 7 7 7 3 1 3 5 3
17 16 17 17 16 15 14 13 13 13 13 13 13 14 15 13 13 14 13 14 14 14 14 14 13 12 13 13 12 10 11 13 13 12 10 11 11 10 10 11 11 11 9 10 8 9 8 8 8 7 7 8 8 7 6 7 7 6 7 1 0 1 3
16 17 17 15 16 15 14 13 12 13 14 12 12 13 14 14 14 14 14 13 13 13 14 14 13 13 14 14 14 13 12 13 14 13 13 13 12 11 10 11 12 10 7 9 9 9 8 8 7 8 9 7 7 7 7 7 6 6 6 4 2 3 4
15 15 16 15 15 14 13 12 12 13 13 12 12 12 13 13 13 13 14 14 14 14 14 14 14 14 15 14 14 14 13 13 13 14 14 13 12 12 13 12 11 11 9 10 10 9 8 7 8 8 7 7 7 7 7 7 7 6 5 6 3 6 5
14 15 16 14 16 15 14 13 12 13 12 12 12 11 11 12 13 13 14 15 15 15 15 15 14 14 14 13 14 13 14 13 14 14 14 14 13 13 13 13 12 10 10 11 9 9 8 9 8 7 8 7 7 7 5 7 7 5 6 7 5 3 2
14 15 15 14 15 15 15 15 14 13 14 14 13 12 13 12 12 15 15 15 15 15 14 14 15 15 14 13 13 13 13 14 14 14 13 13 13 13 13 13 11 11 11 12 12 10 8 10 7 8 8 7 7 6 7 5 5 5 6 7 7 4 2
15 15 15 14 13 13 14 15 15 14 13 13 13 13 13 14 13 14 15 14 14 15 14 13 13 13 13 14 14 14 14 14 13 13 13 13 13 13 13 12 11 12 13 13 12 11 10 8 8 8 9 8 7 7 7 7 6 6 6 5 3 5 7
17 17 15 15 15 15 15 15 15 14 12 13 13 14 15 15 14 14 14 14 14 13 13 12 13 13 14 14 14 14 14 14 14 13 13 13 13 13 13 12 12 12 13 13 12 10 9 10 7 7 7 7 7 7 7 6 5 6 6 5 6 6 4
17 17 16 15 14 15 15 15 14 13 13 13 12 14 14 14 14 14 14 14 14 13 13 13 13 13 14 15 14 15 15 14 14 13 13 12 12 12 12 12 12 12 13 14 15 12 12 11 9 9 7 7 7 8 6 6 7 6 6 7 5 3 6
16 16 14 13 13 14 13 13 13 13 14 14 14 13 13 14 14 15 15 15 14 12 12 12 16 21 18 14 14 13 12 13 14 13 13 12 12 12 13 12 12 17 17 17 15 15 15 15 15 12 10 9 9 8 8 7 7 7 7 8 7 8 7
16 16 14 12 12 12 13 12 13 13 14 15 15 14 14 14 14 15 16 15 15 14 13 13 21 20 20 21 15 13 14 13 13 13 13 13 13 12 11 11 10 13 15 14 14 17 16 16 16 15 15 16 13 12 9 9 8 8 9 8 7 7 9
17 15 12 11 12 12 12 12 13 13 14 15 14 13 14 15 16 15 14 15 15 15 14 18 21 20 20 21 19 15 12 12 12 13 13 13 12 11 11 10 9 8 10 12 10 11 13 16 16 15 15 16 16 16 16 13 10 7 7 8 8 9 8
11 11 11 12 11 11 12 13 13 14 15 14 13 14 15 16 16 15 15 16 16 16 15 19 20 20 21 21 22 19 12 12 12 13 13 13 12 12 11 10 10 8 8 15 12 10 10 10 12 15 15 15 15 16 15 16 16 14 10 10 10 9 10
11 11 10 11 11 12 12 14 14 14 13 13 14 15 16 17 16 16 16 16 16 15 16 19 20 21 21 22 22 19 14 13 12 13 14 13 12 13 12 12 11 10 7 9 9 10 9 8 8 6 6 6 7 10 12 14 14 14 13 11 10 11 9
10 11 11 11 10 11 12 13 14 13 13 14 15 15 16 17 16 17 17 16 15 16 15 20 20 22 21 22 22 19 15 12 12 12 13 14 14 14 13 12 12 12 10 10 9 11 10 9 8 8 7 7 7 7 7 7 7 7 8 6 9 9 10
7 8 9 10 10 10 8 7 8 9 11 13 13 14 15 16 17 18 17 17 16 17 16 20 20 21 22 21 21 14 14 14 13 13 13 13 13 12 12 12 12 11 10 10 12 17 14 11 10 9 9 6 5 4 5 3 3 7 9 9 8 9 8
6 7 8 8 9 10 11 12 10 8 9 12 13 14 15 15 15 16 17 17 18 17 16 18 20 21 21 22 17 13 14 14 13 13 14 13 13 12 12 13 12 11 11 10 14 17 17 15 10 10 9 8 6 5 7 1 2 1 6 10 11 11 11
6 7 7 9 10 10 9 10 12 11 13 13 12 15 13 14 14 15 17 18 17 17 16 17 20 20 21 21 20 15 14 13 13 13 12 12 12 12 14 19 16 13 13 11 16 18 18 16 11 10 9 9 8 8 6 2 1 2 5 5 4 5 10
5 6 7 8 8 9 10 11 12 11 11 12 14 13 9 12 14 14 15 17 19 19 16 15 17 19 20 22 20 14 14 13 14 13 12 12 11 11 11 14 21 17 15 15 20 19 20 16 11 11 12 11 11 11 9 7 6 5 3 4 3 4 2
5 6 8 9 8 9 8 8 9 11 12 11 12 13 13 13 12 12 12 14 13 15 15 13 12 20 20 22 24 16 12 13 14 15 13 12 11 10 10 9 14 18 19 20 21 21 20 20 14 11 11 12 11 13 7 7 6 7 6 7 6 4 5
7 7 8 9 9 8 6 6 7 9 10 10 10 11 13 11 11 12 13 11 12 13 14 16 13 20 20 22 24 21 13 15 15 13 12 11 11 11 10 10 9 14 18 20 20 21 21 21 17 13 13 13 14 10 11 8 7 8 7 6 5 5 6
4 6 6 4 4 7 8 6 6 9 9 9 11 11 10 8 8 9 10 9 12 14 13 18 10 17 22 24 25 27 17 16 16 13 12 11 11 11 13 11 10 14 19 21 21 22 23 22 20 12 14 15 13 17 14 9 8 7 6 6 6 6 6
7 6 7 9 10 11 10 9 8 8 9 9 10 11 13 12 8 8 8 9 9 11 13 12 14 13 19 23 25 26 27 20 20 15 14 15 15 14 10 10 10 18 22 23 23 24 23 24 18 15 17 15 16 17 14 8 9 8 7 7 7 8 7
8 6 6 6 5 6 8 8 8 8 9 9 9 10 10 9 9 10 11 8 6 7 8 9 8 14 15 22 22 26 27 26 20 17 16 14 13 12 12 12 13 22 21 22 23 23 23 22 17 19 16 18 16 15 10 9 8 9 8 8 9 8 8
Wind_Direction
201 205 195 197 189 181 185 182 186 194 193 193 191 196 196 194 196 198 199 199 197 196 192 195 196 195 192 197 190 194 183 182 183 186 189 183 189 207 205 228 250 138 195 119 147 175 165 173 234 270 273 215 210 223 213 207 201 200 201 209 206 200 204
205 201 192 185 183 185 189 183 188 191 193 195 194 193 195 193 194 198 198 201 201 200 197 200 198 193 193 186 188 193 194 193 194 196 180 193 198 200 177 225 217 221 204 218 165 141 141 168 247 202 216 250 232 242 239 230 221 207 200 202 205 201 200
197 191 176 188 191 187 197 191 189 189 192 193 196 196 194 194 194 195 198 200 201 200 198 201 198 196 198 194 188 191 194 195 198 194 195 194 199 197 195 189 196 206 212 243 211 191 207 175 185 208 202 189 214 233 216 231 231 224 214 204 200 201 203
196 188 185 193 194 192 199 197 192 192 190 193 191 197 197 194 197 196 197 199 198 198 199 200 201 198 200 199 194 190 193 196 196 197 201 199 195 199 200 192 200 197 200 201 200 192 174 176 191 250 214 206 213 236 229 219 224 225 219 207 203 202 201
195 192 194 197 196 196 197 196 192 185 192 191 192 194 198 197 195 199 198 197 198 198 201 201 201 201 197 198 199 197 197 199 199 199 199 195 194 201 205 202 206 206 211 211 198 180 185 199 185 207 208 208 267 248 271 202 223 223 227 218 211 198 198
198 198 199 202 199 198 196 193 185 193 188 189 195 196 198 195 195 197 198 198 199 200 199 198 202 199 196 196 200 202 202 197 199 198 201 205 195 195 204 206 205 206 213 209 180 183 196 179 181 204 232 188 203 228 242 182 229 216 218 228 209 195 191
199 200 201 202 200 200 195 194 191 190 191 196 192 197 194 193 197 200 198 201 200 197 197 198 199 200 197 197 200 203 205 204 197 199 206 207 205 210 202 201 209 212 216 199 197 183 186 174 202 207 203 229 220 233 295 211 238 186 257 226 217 197 192
200 201 204 201 198 198 197 197 195 191 195 199 195 195 186 193 198 197 200 201 199 197 195 196 199 199 199 199 202 206 206 202 200 199 205 203 207 208 206 207 209 213 214 204 193 205 189 195 192 195 182 203 242 264 253 246 275 222 228 230 202 194 197
202 205 206 204 202 199 199 199 197 194 198 194 193 184 193 193 195 197 199 203 199 198 197 196 196 198 197 199 203 204 208 200 199 201 205 202 210 205 206 206 204 215 209 203 200 202 198 196 197 189 188 197 202 246 256 256 257 257 224 223 213 207 197
203 203 204 203 203 201 199 200 200 202 197 189 190 190 191 196 196 196 198 200 200 200 200 199 197 198 196 200 202 204 209 202 198 203 200 203 210 204 206 203 207 212 209 202 202 200 195 190 195 193 191 194 191 206 211 220 237 230 261 200 207 223 201
203 204 206 207 204 201 200 201 202 199 200 197 190 190 192 195 199 198 198 199 199 198 201 200 199 198 196 202 204 206 208 199 203 203 203 202 204 200 206 207 210 216 209 199 206 201 193 193 193 198 201 203 180 202 209 224 254 200 228 248 208 215 190
204 205 208 209 208 205 201 200 200 202 201 192 189 188 191 196 198 201 200 198 196 199 199 202 199 198 197 202 203 206 204 201 203 205 205 200 203 195 203 208 209 217 205 205 204 202 204 197 202 196 205 197 200 199 196 188 250 272 191 211 233 217 184
202 203 203 204 206 207 205 203 203 201 198 193 193 188 190 196 198 201 201 199 198 197 198 200 198 198 195 203 200 203 202 200 205 206 205 202 201 200 203 209 209 211 206 201 205 204 205 209 203 200 201 199 200 198 176 181 214 252 229 200 219 226 193
203 203 204 205 208 209 208 205 204 204 196 196 189 187 193 196 198 202 200 201 201 199 198 197 197 197 197 200 201 201 198 200 204 207 202 203 205 201 206 210 212 212 200 202 210 207 208 208 205 207 203 199 202 188 173 184 209 246 297 225 219 216 177
201 200 203 204 206 207 208 205 204 201 201 200 190 192 194 195 197 200 201 204 203 202 200 199 196 197 201 201 200 199 201 200 204 205 200 206 204 205 205 210 214 211 201 209 208 210 206 202 202 203 205 199 203 192 192 174 203 193 230 294 246 55 136
200 201 203 205 207 207 207 207 204 204 205 201 196 197 195 194 196 197 203 205 204 203 202 201 198 198 203 201 200 200 201 201 203 203 204 207 205 203 204 210 214 205 199 209 212 213 203 204 200 203 207 198 200 196 194 191 158 198 191 232 200 175 180
203 202 205 206 207 206 205 208 206 209 209 204 200 201 197 195 193 195 201 204 204 205 204 203 201 202 203 201 202 202 200 202 204 206 206 206 204 202 207 209 212 202 198 206 211 211 210 207 204 207 208 205 201 199 193 192 189 158 185 178 220 194 195
211 206 206 206 207 204 205 206 208 210 208 208 205 200 200 196 196 196 200 204 205 205 206 203 201 203 205 204 204 203 203 204 205 207 207 206 205 205 206 209 208 198 196 206 210 212 208 209 209 204 209 204 203 198 187 190 190 159 157 185 191 230 178
225 213 210 209 207 206 206 207 207 207 206 207 204 202 200 199 200 201 204 206 206 207 206 203 204 204 204 204 205 206 205 205 207 207 207 207 206 206 208 208 204 196 197 203 209 209 205 208 202 203 207 205 202 183 183 190 179 182 175 183 166 164 194
245 222 212 208 208 208 210 212 211 210 206 205 203 204 203 202 202 205 207 206 207 207 206 205 205 205 204 204 205 206 207 207 206 207 209 207 207 207 208 206 202 198 201 205 206 205 203 202 198 204 200 197 193 180 184 183 180 179 179 164 189 183 170
228 234 216 209 206 206 209 210 212 212 205 204 206 206 205 204 204 204 207 206 208 206 205 205 207 207 206 204 205 208 207 206 206 207 208 207 206 207 206 205 202 200 203 204 205 204 193 199 193 200 199 186 183 181 185 183 181 177 169 177 173 178 195
238 233 220 215 209 209 210 210 211 210 207 207 208 209 208 206 205 206 208 206 205 202 203 206 207 207 206 206 206 208 207 207 205 206 206 207 208 208 207 205 205 203 203 203 200 195 195 189 181 193 195 184 183 184 181 183 185 173 178 171 188 161 164
245 236 226 214 212 212 212 212 211 210 210 211 210 208 208 207 208 208 209 209 205 201 204 207 210 208 204 203 205 208 206 207 206 204 203 204 208 210 208 205 207 204 202 199 193 193 192 191 190 186 180 184 182 181 181 181 183 186 173 180 187 169 176
235 236 224 217 215 213 212 212 211 211 212 212 212 210 207 207 209 211 210 209 207 205 206 209 210 206 205 203 202 205 205 207 205 203 203 202 206 207 211 209 206 204 202 200 195 194 194 195 194 194 184 186 182 177 178 183 194 183 180 192 183 178 184
223 227 226 218 218 216 215 213 213 213 213 214 213 210 209 211 212 211 212 212 211 209 210 211 206 203 202 203 201 203 204 205 203 205 203 203 204 203 206 205 204 201 200 199 194 194 198 198 196 196 191 192 193 191 182 180 181 184 188 186 184 193 177
239 237 231 227 224 221 219 217 216 214 214 214 212 211 211 212 214 212 212 213 214 213 215 210 203 199 200 201 202 201 204 203 201 205 203 201 202 203 203 203 203 202 201 195 190 186 187 198 203 198 195 195 197 196 197 195 182 181 182 186 186 191 191
238 243 242 239 233 227 223 223 220 216 216 213 212 212 212 213 213 212 213 214 215 218 217 212 199 198 200 200 199 199 207 201 203 204 203 201 200 203 202 201 199 201 191 185 186 180 183 183 181 189 195 197 204 211 203 200 200 194 185 187 181 192 207
226 234 236 237 240 241 236 233 227 221 218 216 214 213 212 212 213 214 214 212 215 218 221 211 196 198 199 196 196 195 207 203 203 205 205 203 200 199 198 199 199 195 186 182 182 177 172 171 171 180 183 193 205 198 193 201 200 193 200 203 190 196 191
218 225 225 223 224 228 232 241 260 261 244 228 220 218 217 213 212 213 212 211 214 219 222 211 198 197 195 195 188 192 205 207 205 205 206 205 203 198 194 195 194 191 184 185 180 174 172 162 169 174 184 191 191 198 210 216 225 214 196 193 196 197 190
209 218 225 232 232 230 224 224 221 223 256 275 263 234 220 214 215 213 211 212 213 217 221 212 199 196 192 187 175 196 203 208 208 206 207 204 202 198 193 193 191 185 181 186 174 173 169 159 170 176 179 181 184 185 210 254 32 123 202 200 200 199 188
214 221 221 225 230 233 234 235 234 213 211 215 241 268 265 245 224 215 213 213 211 215 220 214 198 195 188 177 179 192 201 205 212 208 209 203 201 201 197 191 188 184 181 182 168 173 168 166 171 176 174 172 179 199 210 209 102 40 65 90 111 160 175
224 231 236 235 229 227 224 221 226 222 216 217 214 219 234 270 263 241 225 214 211 212 219 217 192 191 183 179 184 193 196 205 209 212 206 206 202 200 199 194 192 186 182 171 169 173 172 173 177 174 179 177 192 199 194 176 162 139 133 112 88 97 71
233 232 237 241 238 234 230 226 227 225 228 224 223 224 213 206 234 266 268 243 223 211 217 216 187 190 182 183 186 190 198 202 211 212 205 202 197 203 199 193 198 189 174 165 171 173 177 181 179 182 174 190 192 203 173 175 185 164 167 161 164 162 154
232 237 232 238 244 246 237 228 228 233 234 234 238 240 234 227 214 222 238 249 246 224 212 212 191 182 183 184 190 191 199 205 212 208 204 200 200 198 195 196 189 184 170 167 172 176 180 189 187 180 185 194 201 172 148 177 185 183 160 157 155 153 155
207 217 221 224 255 265 262 238 217 227 228 230 232 231 245 246 240 228 224 226 250 253 232 213 187 184 183 186 187 194 199 208 207 203 200 205 201 202 200 188 187 173 170 170 177 179 185 190 191 183 196 196 150 148 167 177 166 162 164 154 157 162 164
199 195 206 206 208 222 233 235 222 214 214 216 222 227 231 234 228 247 252 242 232 251 258 252 199 179 189 188 190 193 202 205 199 196 200 204 204 203 188 182 175 168 175 175 179 184 187 192 188 198 189 175 166 166 164 168 164 165 165 171 168 177 180
221 220 219 228 231 224 234 237 234 220 220 214 217 222 225 218 204 217 224 215 210 240 266 271 238 198 187 194 193 196 202 207 189 196 201 208 203 193 186 186 171 169 175 180 185 187 189 188 192 196 175 175 166 165 165 160 171 175 173 173 185 186 188